Regional Weather Roundup
Issued by NWS Cleveland, OH

Home | Current Version | Previous Version | Graphics & Text | Print | Product List | Glossary On
Versions: 1 2 3 4 5 6 7 8 9 10 11 12 13 14 15 16 17 18 19 20 21 22 23 24 25 26 27 28 29 30 31 32 33 34 35 36 37 38 39 40 41 42 43 44 45 46 47 48 49 50
467
ASUS41 KCLE 300612
RWRCLE
OHIO REGIONAL WEATHER ROUNDUP
NATIONAL WEATHER SERVICE WILMINGTON, OH
200 AM EDT TUE AUG 30 2016

NOTE: "FAIR" INDICATES FEW OR NO CLOUDS BELOW 12,000 FEET WITH NO
SIGNIFICANT WEATHER AND/OR OBSTRUCTIONS TO VISIBILITY.

OHZ001>008-015>018-024>027-034-035-043-044-300700-
   NORTHWEST OHIO

CITY           SKY/WX    TMP DP  RH WIND       PRES   REMARKS
DEFIANCE       FAIR      67  63  87 CALM      30.20F
FINDLAY        FAIR      64  60  87 CALM      30.19S
TOLEDO EXPRESS FAIR      63  63 100 CALM      30.20S
TOLEDO EXEC    FAIR      66  64  93 CALM      30.20F
LIMA           FAIR      65  63  93 CALM      30.20F
$$

OHZ009>014-019>023-028>033-038-089-300700-
   NORTHEAST OHIO

CITY           SKY/WX    TMP DP  RH WIND       PRES   REMARKS
CLE-HOPKINS    FAIR      66  57  72 SE3       30.22S
CLE-LAKEFRONT  FAIR      70  56  61 SE5       30.19S
CUY CO. ARPT   NOT AVBL
LORAIN-ELYRIA  FAIR      59  57  93 CALM      30.21S FOG
ASHTABULA      FAIR      56  56 100 CALM      30.22S
AKRON-CANTON   FAIR      64  57  78 NE5       30.21S
WOOSTER        FAIR      59  57  93 CALM      30.22S
MANSFIELD      FAIR      65  58  78 CALM      30.21F
YOUNGSTOWN     FAIR      59  56  89 E5        30.21F
$$

OHZ042-051>053-060>062-070>072-077>081-300700-
  SOUTHWEST OHIO

CITY           SKY/WX    TMP DP  RH WIND       PRES   REMARKS
CINC-COVINGTON FAIR      77  70  79 NE8       30.17S
CINC-LUNKEN    FAIR      70  70 100 CALM      30.16S FOG
HAMILTON       FAIR      70  68  93 CALM      30.18R
DAYTON         FAIR      71  66  84 NE3       30.20S
WRIGHT-PAT AFB FAIR      72  67  87 N2        30.18S
DAYTON GENERAL FAIR      70  65  84 NE6       30.18S
WILMINGTON     FAIR      68  66  93 NE6       30.18S
$$

OHZ036-037-039>041-045>050-054>059-063>069-073>076-082>088-300700-
  CENTRAL AND SOUTHEAST OHIO

CITY           SKY/WX    TMP DP  RH WIND       PRES   REMARKS
COLUMBUS       FAIR      69  61  75 NE5       30.17F
OSU AIRPORT    FAIR      69  64  84 CALM      30.19S
BOLTON FIELD   FAIR      68  64  84 CALM      30.19S
RICKENBACK AFB FAIR      68  63  86 E6        30.18R
NEWARK         FAIR      67  62  84 N5        30.19S
MARION         FAIR      66  61  84 CALM      30.20F
LANCASTER      FAIR      67  65  93 N3        30.19S
ZANESVILLE     FAIR      66  62  87 CALM      30.18F
NEW PHILLY     FAIR      63  59  87 CALM      30.20F
$$




USA.gov is the U.S. government's official web portal to all federal, state and local government web resources and services.